Location: ????????
(54.9045°N, 39.1041°E)
Time: 20:13:27
(UTC+00:00)

Cosmos 2056 Rocket - Visible Passes

Search period start: 12 July 2024 00:00
Search period end: 22 July 2024 00:00
Orbit: 740 x 797 km, 74.0° (Epoch: 12 July)

Date Brightness Start Highest point End Pass type
(mag) Time Alt. Az. Time Alt. Az. Time Alt. Az.
12 Jul 5.0 21:39:00 13° SSE 21:42:32 24° E 21:46:42 10° NE visible
12 Jul 3.7 23:19:17 12° SW 23:24:10 70° WNW 23:29:25 10° NNE visible
13 Jul 5.5 21:02:54 10° SE 21:06:04 16° E 21:09:12 10° ENE visible
13 Jul 3.5 22:43:08 16° SSW 22:47:21 81° ESE 22:52:37 10° NNE visible
14 Jul 5.8 20:29:29 10° E 20:29:41 10° E 20:29:53 10° E visible
14 Jul 3.9 22:06:57 19° S 22:10:37 54° ESE 22:15:44 10° NNE visible
14 Jul 4.7 23:48:08 10° WSW 23:52:58 35° NW 23:57:45 10° NNE visible
15 Jul 4.4 21:30:44 18° SSE 21:33:59 36° ESE 21:38:44 10° NE visible
15 Jul 4.2 23:11:01 11° SW 23:15:58 49° NW 23:21:02 10° NNE visible
16 Jul 4.9 20:54:31 15° SE 20:57:25 24° E 21:01:34 10° NE visible
16 Jul 3.7 22:34:47 16° SW 22:39:04 70° WNW 22:44:17 10° NNE visible
17 Jul 5.4 20:18:15 11° SE 20:20:57 16° E 20:24:02 10° ENE visible
17 Jul 3.5 21:58:31 20° SSW 22:02:14 81° ESE 22:07:28 10° NNE visible
17 Jul 5.2 23:40:32 10° W 23:44:56 26° NW 23:49:17 10° NNE visible
18 Jul 3.8 21:22:14 22° S 21:25:30 54° ESE 21:30:35 10° NE visible
18 Jul 4.7 23:03:01 10° WSW 23:07:50 35° NW 23:12:36 10° NNE visible
19 Jul 4.3 20:45:54 20° SSE 20:48:51 36° ESE 20:53:34 10° NE visible
19 Jul 4.2 22:26:10 12° SW 22:30:50 49° NW 22:35:54 10° NNE visible
20 Jul 5.8 00:11:05 10° WNW 00:14:13 16° NNW 00:17:22 10° N visible
20 Jul 4.8 20:09:34 16° SE 20:12:17 24° E 20:16:24 10° NE visible
20 Jul 3.7 21:49:50 17° SW 21:53:55 70° WNW 21:59:08 10° NNE visible
20 Jul 5.6 23:33:08 10° W 23:36:58 20° NW 23:40:46 10° N visible
21 Jul 5.3 19:33:11 11° SE 19:35:49 16° E 19:38:52 10° ENE visible
21 Jul 3.5 21:13:27 20° SSW 21:17:06 80° ESE 21:22:19 10° NNE visible
21 Jul 5.3 22:55:25 10° W 22:59:47 26° NW 23:04:08 10° NNE visible
